Weather History for KTVI - January, 2014

Change the Weather History Date:

Sunday, January 19, 2014

  Actual Average (KVLD) Record (KVLD)
Temperature  
Mean Temperature 46 °F 50 °F  
Max Temperature 60 °F 62 °F 69 °F (2015)
Min Temperature 33 °F 38 °F 32 °F (2015)
Degree Days  
Heating Degree Days 18 15  
Month to date heating degree days 285  
Since 1 July heating degree days 898  
Moisture  
Dew Point 36 °F    
Average Humidity 68    
Maximum Humidity 100    
Minimum Humidity 36    
Precipitation  
Precipitation 0.00 in 0.11 in 0.00 in (2015)
Month to date precipitation 2.94  
Year to date precipitation 2.94  
Sea Level Pressure  
Sea Level Pressure 30.12 in    
Wind  
Wind Speed 5 mph (WSW)    
Max Wind Speed 14 mph    
Max Gust Speed 22 mph    
Visibility 10 miles    
Events Rain , Thunderstorm    
T = Trace of Precipitation, MM = Missing Value Source: NWS Daily Summary

Daily Weather History Graph

Daily Weather History Graph

Search for Another Location

Airport or City:

Trip Planner

Search our weather history database for the weather conditions in past years. The results will help you decide how hot, cold, wet, or windy it might be!

Date:

Astronomy

Jan. 19, 2014 Rise Set
Actual Time 7:33 AM EST 5:59 PM EST
Civil Twilight 7:07 AM EST 6:25 PM EST
Nautical Twilight 6:37 AM EST 6:55 PM EST
Astronomical Twilight 6:08 AM EST 7:24 PM EST
Moon 9:19 PM EST (1/19) 9:18 AM EST (1/19)
Length of Visible Light 11h 18m
Length of Day
10h 26m
Waning Gibbous, 89% of the Moon is Illuminated
Jan 19
Waning Gibbous
Jan 24
Last Quarter
Jan 30
New
Feb 6
First Quarter
Feb 14
Full

Hourly Weather History & Observations

Time (EST) Temp. Windchill Dew Point Humidity Pressure Visibility Wind Dir Wind Speed Gust Speed Precip Events Conditions
12:15 AM 35.6 °F 32.8 °F 26.6 °F 70% 30.12 in 10.0 mi South 3.5 mph - N/A   Clear
12:35 AM 33.8 °F - 28.4 °F 81% 30.12 in 10.0 mi Calm Calm - N/A   Clear
12:55 AM 33.8 °F 30.8 °F 28.4 °F 81% 30.12 in 10.0 mi South 3.5 mph - N/A   Clear
1:15 AM 35.6 °F 32.8 °F 28.4 °F 75% 30.14 in 10.0 mi SW 3.5 mph - N/A   Clear
1:35 AM 35.6 °F 31.7 °F 28.4 °F 75% 30.13 in 10.0 mi South 4.6 mph - N/A   Clear
1:55 AM 35.6 °F 32.8 °F 28.4 °F 75% 30.14 in 10.0 mi SSW 3.5 mph - N/A   Clear
2:15 AM 35.6 °F 31.7 °F 28.4 °F 75% 30.14 in 10.0 mi SSW 4.6 mph - N/A   Clear
2:35 AM 35.6 °F 31.7 °F 28.4 °F 75% 30.12 in 10.0 mi SSW 4.6 mph - N/A   Clear
2:55 AM 35.6 °F 30.7 °F 30.2 °F 81% 30.12 in 10.0 mi SSW 5.8 mph - N/A   Clear
3:15 AM 37.4 °F 31.4 °F 32.0 °F 81% 30.12 in 10.0 mi SSW 8.1 mph - N/A   Clear
3:35 AM 39.2 °F 33.6 °F 32.0 °F 75% 30.11 in 10.0 mi SSW 8.1 mph - N/A   Clear
3:55 AM 41.0 °F 36.4 °F 32.0 °F 70% 30.12 in 10.0 mi SW 6.9 mph - N/A   Scattered Clouds
4:15 AM 41.0 °F 37.1 °F 33.8 °F 76% 30.11 in 10.0 mi SW 5.8 mph - N/A   Scattered Clouds
4:35 AM 41.0 °F 38.0 °F 33.8 °F 76% 30.12 in 10.0 mi SW 4.6 mph - N/A   Scattered Clouds
4:55 AM 42.8 °F 40.1 °F 35.6 °F 76% 30.12 in 10.0 mi SW 4.6 mph - N/A   Mostly Cloudy
5:15 AM 44.6 °F 41.4 °F 35.6 °F 71% 30.13 in 10.0 mi SW 5.8 mph - N/A   Overcast
5:35 AM 44.6 °F 40.7 °F 35.6 °F 71% 30.12 in 10.0 mi SW 6.9 mph - N/A   Overcast
5:55 AM 44.6 °F 40.7 °F 37.4 °F 76% 30.12 in 10.0 mi SW 6.9 mph - N/A   Overcast
6:15 AM 44.6 °F 39.7 °F 35.6 °F 71% 30.09 in 10.0 mi South 9.2 mph - N/A   Scattered Clouds
6:35 AM 42.8 °F 38.0 °F 35.6 °F 76% 30.10 in 10.0 mi SW 8.1 mph - N/A   Scattered Clouds
6:55 AM 42.8 °F 39.3 °F 35.6 °F 76% 30.11 in 10.0 mi SSW 5.8 mph - N/A   Clear
7:15 AM 42.8 °F 40.1 °F 35.6 °F 76% 30.10 in 10.0 mi SSW 4.6 mph - N/A   Scattered Clouds
7:35 AM 42.8 °F 39.3 °F 35.6 °F 76% 30.11 in 10.0 mi SW 5.8 mph - N/A Thunderstorm Scattered Clouds
7:55 AM 46.4 °F 42.4 °F 39.2 °F 76% 30.14 in 10.0 mi West 8.1 mph - N/A   Mostly Cloudy
8:15 AM 46.4 °F 43.5 °F 42.8 °F 87% 30.13 in 10.0 mi WSW 5.8 mph - N/A Rain , Thunderstorm Light Thunderstorms and Rain
8:35 AM 46.4 °F 42.9 °F 46.4 °F 100% 30.14 in 10.0 mi West 6.9 mph - N/A Rain Light Rain
8:55 AM 46.4 °F 42.9 °F 46.4 °F 100% 30.14 in 10.0 mi WSW 6.9 mph - N/A   Overcast
9:15 AM 46.4 °F 43.5 °F 44.6 °F 93% 30.15 in 10.0 mi WSW 5.8 mph - N/A   Overcast
9:35 AM 48.2 °F - 46.4 °F 93% 30.15 in 10.0 mi SW 5.8 mph - N/A   Overcast
9:55 AM 50.0 °F - 46.4 °F 87% 30.16 in 10.0 mi SW 5.8 mph - N/A   Scattered Clouds
10:15 AM 51.8 °F - 46.4 °F 82% 30.16 in 10.0 mi West 8.1 mph - N/A   Clear
10:35 AM 53.6 °F - 44.6 °F 72% 30.17 in 10.0 mi West 11.5 mph 18.4 mph N/A   Clear
10:55 AM 53.6 °F - 44.6 °F 72% 30.17 in 10.0 mi West 11.5 mph 16.1 mph N/A   Scattered Clouds
11:15 AM 55.4 °F - 44.6 °F 67% 30.16 in 10.0 mi West 9.2 mph 16.1 mph N/A   Scattered Clouds
11:35 AM 55.4 °F - 42.8 °F 63% 30.16 in 10.0 mi West 11.5 mph - N/A   Scattered Clouds
11:55 AM 57.2 °F - 42.8 °F 59% 30.15 in 10.0 mi WNW 8.1 mph - N/A   Clear
12:15 PM 59.0 °F - 42.8 °F 55% 30.14 in 10.0 mi WNW 8.1 mph - N/A   Clear
12:35 PM 59.0 °F - 42.8 °F 55% 30.13 in 10.0 mi West 10.4 mph 17.3 mph N/A   Scattered Clouds
12:55 PM 59.0 °F - 41.0 °F 51% 30.12 in 10.0 mi West 10.4 mph - N/A   Scattered Clouds
1:15 PM 60.8 °F - 41.0 °F 48% 30.11 in 10.0 mi NW 8.1 mph - N/A   Clear
1:35 PM 60.8 °F - 41.0 °F 48% 30.10 in 10.0 mi WNW 8.1 mph - N/A   Scattered Clouds
1:55 PM 60.8 °F - 37.4 °F 42% 30.10 in 10.0 mi West 11.5 mph 21.9 mph N/A   Scattered Clouds
2:15 PM 60.8 °F - 35.6 °F 39% 30.10 in 7.0 mi WNW 11.5 mph 21.9 mph N/A   Clear
2:35 PM 60.8 °F - 35.6 °F 39% 30.10 in 10.0 mi West 13.8 mph 18.4 mph N/A   Clear
2:55 PM 60.8 °F - 35.6 °F 39% 30.09 in 10.0 mi WNW 8.1 mph 19.6 mph N/A   Clear
3:15 PM 60.8 °F - 33.8 °F 36% 30.09 in 10.0 mi WNW 9.2 mph 16.1 mph N/A   Clear
3:35 PM 60.8 °F - 33.8 °F 36% 30.09 in 10.0 mi NW 12.7 mph 20.7 mph N/A   Clear
3:55 PM 60.8 °F - 33.8 °F 36% 30.09 in 10.0 mi WNW 4.6 mph - N/A   Clear
4:15 PM 60.8 °F - 35.6 °F 39% 30.10 in 10.0 mi WNW 8.1 mph - N/A   Clear
4:35 PM 60.8 °F - 33.8 °F 36% 30.10 in 10.0 mi NW 10.4 mph - N/A   Clear
4:55 PM 59.0 °F - 35.6 °F 42% 30.10 in 10.0 mi NW 6.9 mph - N/A   Clear
5:15 PM 59.0 °F - 35.6 °F 42% 30.11 in 10.0 mi NW 5.8 mph - N/A   Clear
5:35 PM 57.2 °F - 35.6 °F 44% 30.10 in 10.0 mi WNW 3.5 mph - N/A   Clear
5:55 PM 55.4 °F - 33.8 °F 44% 30.10 in 10.0 mi WNW 3.5 mph - N/A   Clear
6:15 PM 55.4 °F - 33.8 °F 44% 30.11 in 10.0 mi Calm Calm - N/A   Clear
6:35 PM 53.6 °F - 33.8 °F 47% 30.12 in 10.0 mi West 3.5 mph - N/A   Clear
6:55 PM 51.8 °F - 33.8 °F 50% 30.11 in 10.0 mi WNW 3.5 mph - N/A   Clear
7:15 PM 46.4 °F - 39.2 °F 76% 30.12 in 10.0 mi Calm Calm - N/A   Clear
7:55 PM 44.6 °F - 35.6 °F 71% 30.13 in 10.0 mi Calm Calm - N/A   Clear
8:15 PM 42.8 °F - 35.6 °F 76% 30.12 in 10.0 mi Calm Calm - N/A   Clear
8:35 PM 42.8 °F - 35.6 °F 76% 30.12 in 10.0 mi Calm Calm - N/A   Clear
8:55 PM 42.8 °F - 35.6 °F 76% 30.12 in 10.0 mi Calm Calm - N/A   Clear
9:15 PM 41.0 °F - 37.4 °F 87% 30.13 in 10.0 mi Calm Calm - N/A   Clear
9:35 PM 41.0 °F - 35.6 °F 81% 30.14 in 10.0 mi Calm Calm - N/A   Clear
9:55 PM 41.0 °F 39.0 °F 35.6 °F 81% 30.14 in 10.0 mi West 3.5 mph - N/A   Clear
10:15 PM 41.0 °F 39.0 °F 35.6 °F 81% 30.14 in 10.0 mi West 3.5 mph - N/A   Clear
10:35 PM 41.0 °F - 35.6 °F 81% 30.15 in 10.0 mi Calm Calm - N/A   Clear
10:55 PM 39.2 °F - 35.6 °F 87% 30.15 in 10.0 mi Calm Calm - N/A   Clear
11:15 PM 42.8 °F 40.1 °F 35.6 °F 76% 30.14 in 10.0 mi West 4.6 mph - N/A   Clear
11:35 PM 41.0 °F - 33.8 °F 76% 30.14 in 10.0 mi Calm Calm - N/A   Clear
11:55 PM 37.4 °F - 33.8 °F 87% 30.14 in 10.0 mi Calm Calm - N/A   Clear